Regional Weather Roundup
Issued by NWS

Home | Current Version | Previous Version | Graphics & Text | Print | Product List | Glossary On
Versions: 1 2 3 4 5 6 7 8 9 10 11 12 13 14 15 16 17 18 19 20 21 22 23 24 25 26 27 28 29 30 31 32 33 34 35 36 37 38 39 40 41 42 43 44 45 46 47 48 49 50
000
ASUS43 KLSX 261959
RWRMO

WEATHER SUMMARY FOR MISSOURI
NATIONAL WEATHER SERVICE SPRINGFIELD MO
200 PM CST MON JAN 26 2015

NOTE: "FAIR" INDICATES FEW OR NO CLOUDS BELOW 12,000 FEET WITH NO
       SIGNIFICANT WEATHER AND/OR OBSTRUCTIONS TO VISIBILITY.
       CURRENT SKY AND/OR WEATHER CONDITIONS ARE NOT AVAILABLE FOR
       CHILLICOTHE AND FARMINGTON.

MOZ001>031-035>038-043-044-053-054-262100-
...NORTHERN AND WESTERN MISSOURI...

CITY           SKY/WX    TMP DP  RH WIND       PRES   REMARKS
KANSAS CTY INT FAIR      57  38  48 W16       29.90S
KANSAS C DTWN  SUNNY     58  35  42 W14G25    29.90F
LEE`S SUMMIT   SUNNY     55  34  45 W16       29.90F
ST JOSEPH      SUNNY     57  37  47 NW14G24   29.90F
CHILLICOTHE      N/A     54  37  52 W9G20     29.87S
KIRKSVILLE     SUNNY     49  37  63 W13       29.82F

$$
MOZ066>068-077>081-088>096-101>105-262100-
...SOUTHWEST MISSOURI...

CITY           SKY/WX    TMP DP  RH WIND       PRES   REMARKS
SPRINGFIELD    SUNNY     55  32  41 W14       29.93F
JOPLIN         SUNNY     55  33  43 W17       29.97S

$$
MOZ032>034-039>042-045>050-055>058-069>072-262100-
...CENTRAL MISSOURI...

CITY           SKY/WX    TMP DP  RH WIND       PRES   REMARKS
COLUMBIA       MOSUNNY   51  35  54 W14       29.85S
JEFFERSON CITY PTSUNNY   50  32  50 W14G28    29.86F
ROLLA          CLOUDY    47  32  56 SW20      29.81F
SEDALIA        SUNNY     52  35  52 W14G30    29.86F
OSAGE BEACH    SUNNY     52  32  46 SW14G23   29.86F

$$
MOZ051-052-059>065-262100-
...EAST CENTRAL MISSOURI...

CITY           SKY/WX    TMP DP  RH WIND       PRES   REMARKS
ST LOUIS INTL  PTSUNNY   37  27  67 S8        29.88F
SPIRIT OF STL  PTSUNNY   40  30  67 S8        29.87F
ST CHARLES     CLOUDY    35  28  75 S9        29.87F WCI  28

$$
MOZ072>076-082>087-097>100-106>115-262100-
...SOUTH CENTRAL AND SOUTHEAST MISSOURI...

CITY           SKY/WX    TMP DP  RH WIND       PRES   REMARKS
CAPE GIRARDEAU CLOUDY    37  30  75 SW10      29.95F WCI  30
FARMINGTON     PTSUNNY   39  28  65 MISG      29.93S
POPLAR BLUFF   PTSUNNY   43  32  65 S12       29.93F
WEST PLAINS    SUNNY     50  30  46 W10       29.92F

$$



USA.gov is the U.S. government's official web portal to all federal, state and local government web resources and services.